Home > Weather > Bambari > Past weeks

Flag for Central African Republic Past Weather in Bambari, Central African Republic — Yesterday and Last 2 Weeks

Now
70 °F

Light rain. Passing clouds.


Feels Like: 70 °F
Forecast: 69 / 86 °F
Wind: No wind

Location: Bangui Airport

Current Time: Aug 26, 2016 at 4:37:39 AM

Latest Report: Aug 26, 2016 at 3:00 AM


Visibility: 5 mi

Pressure: 29.92 "Hg

Humidity: 100%

Dew Point: 70 °F

Location of BambariLocation

Past Weather in Bambari — Graph

°F

Bambari Temperature Yesterday

Maximum temperature yesterday: 77 °F (at 12:00 AM)
Minimum temperature yesterday: 70 °F (at 11:00 AM)
Average temperature yesterday: 72 °F

High & Low Weather Summary for the Past Weeks

 TemperatureHumidityPressure
High93 °F (Aug 11, 1:00 PM)100% (Aug 11, 4:00 AM)30.04 "Hg (Aug 11, 4:00 AM)
Low68 °F (Aug 16, 2:00 AM)47% (Aug 22, 4:00 PM)29.74 "Hg (Aug 24, 4:00 PM)
Average77 °F86%29.90 "Hg
* Reported Aug 11 3:00 AM — Aug 26 3:00 AM, Bambari, Weather by CustomWeather, © 2016

Note: Actual official high and low records may vary slightly from our data, if they occured in-between our weather recording intervals... More about our weather records

Advertising

Bambari Weather History for the Previous 24 Hours

Scroll right to see more
 ConditionsComfort  
Time TempWeatherWind HumidityBarometerVisibility
3:00 AM
Fri, Aug 26
70 °FLight rain. Passing clouds.No wind100%29.92 "Hg5 mi
2:00 AM70 °FPassing clouds.2 mph100%29.89 "Hg5 mi
1:00 AM70 °FPassing clouds.3 mph100%29.92 "Hg5 mi
12:00 AM72 °FPassing clouds.2 mph100%29.92 "Hg5 mi
11:00 PM
Thu, Aug 25
72 °FPassing clouds.No wind100%29.92 "Hg5 mi
10:00 PM72 °FPassing clouds.2 mph100%29.95 "Hg5 mi
9:00 PM72 °FPassing clouds.No wind100%29.92 "Hg5 mi
8:00 PM72 °FPassing clouds.No wind100%29.92 "Hg5 mi
7:00 PM72 °FPassing clouds.1 mph94%29.89 "Hg5 mi
6:00 PM72 °FPassing clouds.2 mph94%29.89 "Hg5 mi
5:00 PM73 °FPartly sunny.8 mph89%29.89 "Hg5 mi
4:00 PM73 °FLight rain. Partly sunny.8 mph89%29.89 "Hg5 mi
3:00 PM72 °FLight rain. Partly sunny.5 mph94%29.92 "Hg5 mi
2:00 PM72 °FLight rain. Partly sunny.7 mph94%29.95 "Hg5 mi
1:00 PM72 °FLight rain. Partly sunny.6 mph94%29.98 "Hg4 mi
12:00 PM70 °FThunderstorms. Partly sunny.6 mph100%30.01 "Hg2 mi
11:00 AM70 °FThunderstorms. Partly sunny.7 mph100%30.04 "Hg2 mi
8:00 AM72 °FThunderstorms. Partly sunny.2 mph100%30.01 "Hg5 mi
7:00 AM72 °FThunderstorms. Partly sunny.No wind100%29.98 "Hg5 mi
6:00 AM72 °FThunderstorms. Scattered clouds.5 mph100%29.92 "Hg5 mi
5:00 AM72 °FThunderstorms. Passing clouds.6 mph100%29.89 "Hg5 mi
4:00 AM73 °FThunderstorms. Passing clouds.5 mph94%29.86 "Hg5 mi
Weather by CustomWeather, © 2016

See weather overviewHow to use our weather pages